EW6338 Weather Reports


time (UTC)temp
F
wind
direction
speed
knots
gust
knots
rain 1hr
in
rain 24hr
in
rain mn
in
humidity
%
barometer
mb
20191023020110 53 108 0.0 2.6 0.04 0.06 0.06 95 1014.0
20191023014635 53 107 0.0 1.7 0.02 0.04 0.04 95 1014.3
20191023013039 53 94 0.0 1.7 0.02 0.04 0.04 95 1014.3
20191023011533 53 86 0.0 2.6 0.01 0.03 0.03 95 1014.4
20191023010058 53 103 0.0 3.5 0.01 0.02 0.02 94 1015.1
20191023004533 53 40 0.0 4.3 0.01 0.02 0.02 94 1015.3
20191023003109 53 90 0.0 1.7 0.01 0.02 0.02 94 1015.3
20191023001551 53 45 0.0 4.3 0.01 0.02 0.02 94 1015.3
20191023000035 53 94 0.0 4.3 0.00 0.01 0.01 94 1015.4
20191022234536 53 100 0.9 5.2 0.01 0.01 0.01 94 1015.9
20191022233046 53 80 0.0 2.6 0.01 0.01 0.01 94 1016.2
20191022231540 53 60 0.0 2.6 0.01 0.01 0.01 93 1016.4
20191022230029 52 115 0.0 1.7 0.01 0.01 0.01 93 1016.8
20191022224512 53 71 0.0 1.7 0.00 0.00 0.00 92 1016.7
20191022223056 53 77 0.0 3.5 0.00 0.00 0.00 92 1017.1
20191022221513 53 87 0.0 1.7 0.00 0.00 0.00 91 1016.8
20191022220012 53 105 0.0 1.7 0.00 0.00 0.00 90 1017.0
20191022214539 53 50 0.0 0.9 0.00 0.00 0.00 89 1017.1
20191022213051 53 332 0.0 1.7 0.00 0.00 0.00 89 1017.5
20191022211509 54 96 0.0 2.6 0.00 0.00 0.00 88 1016.8
20191022210017 54 215 0.0 2.6 0.00 0.00 0.00 87 1016.8
20191022204548 54 356 0.0 5.2 0.00 0.00 0.00 87 1016.9
20191022203007 54 101 0.9 3.5 0.00 0.00 0.00 87 1017.1
20191022201515 54 59 0.0 3.5 0.00 0.00 0.00 87 1016.9
20191022200005 54 323 0.0 1.7 0.00 0.00 0.00 86 1017.6
20191022194707 54 87 0.0 4.3 0.00 0.00 0.00 86 1017.9
20191022193242 54 46 0.0 2.6 0.00 0.00 0.00 86 1018.1
20191022191644 54 123 0.0 2.6 0.00 0.00 0.00 86 1018.4
20191022190401 55 71 0.0 2.6 0.00 0.00 0.00 85 1018.5
20191022184726 55 41 0.0 3.5 0.00 0.00 0.00 85 1018.3
20191022183142 55 53 0.0 2.6 0.00 0.00 0.00 85 1018.7
20191022181650 56 30 0.0 0.9 0.00 0.00 0.00 84 1018.8
20191022180150 56 46 0.0 0.9 0.00 0.00 0.00 83 1019.2
20191022174748 56 76 0.9 3.5 0.00 0.00 0.00 82 1019.0
20191022173155 57 39 0.0 0.9 0.00 0.00 0.00 82 1019.4
20191022171616 58 122 0.0 1.7 0.00 0.00 0.00 81 1019.1
20191022170215 57 309 0.0 2.6 0.00 0.00 0.00 82 1019.1
20191022164727 57 93 0.0 4.3 0.00 0.00 0.00 82 1019.1
20191022163159 57 85 0.9 4.3 0.00 0.00 0.00 83 1019.2
20191022161614 57 349 0.0 2.6 0.00 0.00 0.00 85 1019.3
20191022160100 56 63 0.0 2.6 0.00 0.00 0.00 86 1019.5
20191022154605 57 145 0.9 0.0 0.00 0.00 0.00 86 1019.4
20191022153109 56 48 0.0 2.6 0.00 0.00 0.00 88 1019.6
20191022151634 54 49 0.0 1.7 0.00 0.00 0.00 93 1019.7
20191022150130 53 82 0.0 1.7 0.00 0.00 0.00 94 1019.8
20191022144604 52 77 0.0 1.7 0.00 0.00 0.00 96 1019.8
20191022143101 51 31 0.0 0.0 0.00 0.00 0.00 96 1020.1
20191022141634 50 56 0.0 0.0 0.00 0.00 0.00 96 1020.3
20191022140107 49 56 0.0 0.0 0.00 0.00 0.00 96 1020.3
20191022134520 48 56 0.0 0.0 0.00 0.00 0.00 96 1021.1
20191022133021 47 100 0.0 0.9 0.00 0.00 0.00 96 1021.0
20191022131538 47 101 0.0 0.0 0.00 0.00 0.00 96 1021.3
20191022130022 47 101 0.0 0.0 0.00 0.00 0.00 96 1021.0
20191022124548 46 101 0.0 0.0 0.00 0.00 0.00 96 1020.9
20191022123002 45 101 0.0 0.0 0.00 0.00 0.00 96 1020.9
20191022121904 44 101 0.0 0.0 0.00 0.00 0.00 96 1020.4
20191022120230 44 101 0.0 0.0 0.00 0.00 0.00 96 1020.3
20191022114649 44 101 0.0 0.0 0.00 0.00 0.00 96 1020.1
20191022113206 43 101 0.0 0.0 0.00 0.00 0.00 96 1020.2
20191022111619 43 101 0.0 0.0 0.00 0.00 0.00 95 1020.0
20191022110217 43 101 0.0 0.0 0.00 0.00 0.00 95 1020.2
20191022104717 43 101 0.0 0.0 0.00 0.00 0.00 95 1019.7
20191022103147 43 101 0.0 0.0 0.00 0.00 0.00 96 1019.7
20191022101647 43 101 0.0 0.0 0.00 0.00 0.00 95 1019.6
20191022100231 43 101 0.0 0.0 0.00 0.00 0.00 96 1019.4
20191022094648 43 101 0.0 0.0 0.00 0.00 0.00 95 1019.6
20191022093133 43 101 0.0 0.0 0.00 0.00 0.00 95 1019.7
20191022091619 43 101 0.0 0.0 0.00 0.00 0.00 95 1020.1
20191022090213 43 101 0.0 0.0 0.00 0.00 0.00 95 1020.2
20191022084619 43 101 0.0 0.0 0.00 0.00 0.00 95 1020.0
20191022083116 43 101 0.0 0.0 0.00 0.00 0.00 95 1020.0
20191022081621 43 101 0.0 0.0 0.00 0.00 0.00 95 1019.9
20191022080217 43 101 0.0 0.0 0.00 0.00 0.00 95 1019.9
20191022074607 43 101 0.0 0.0 0.00 0.00 0.00 95 1020.2
20191022073122 43 101 0.0 0.0 0.00 0.00 0.00 95 1020.5
20191022071605 43 101 0.0 0.0 0.00 0.00 0.00 95 1020.6
20191022070121 42 101 0.0 0.0 0.00 0.00 0.00 95 1020.8
20191022064658 42 101 0.0 0.0 0.00 0.00 0.00 95 1020.6
20191022063113 42 101 0.0 0.0 0.00 0.00 0.00 95 1020.7
20191022061646 42 101 0.0 0.0 0.00 0.00 0.00 95 1020.7
20191022060120 42 101 0.0 0.0 0.00 0.00 0.00 95 1020.9
20191022054556 42 101 0.0 0.0 0.00 0.00 0.00 94 1021.1
20191022053052 42 101 0.0 0.0 0.00 0.00 0.00 95 1020.9
20191022051629 42 101 0.0 0.0 0.00 0.00 0.00 94 1020.6
20191022050116 42 101 0.0 0.0 0.00 0.00 0.00 94 1020.7
20191022044613 43 101 0.0 0.0 0.00 0.00 0.00 94 1020.4
20191022043102 43 101 0.0 0.0 0.00 0.00 0.00 94 1020.2
20191022041532 44 101 0.0 0.0 0.00 0.00 0.00 94 1020.6
20191022040028 44 101 0.0 0.0 0.00 0.00 0.00 94 1020.6
20191022034521 44 101 0.0 0.0 0.00 0.00 0.00 94 1020.7
20191022033054 44 101 0.0 0.0 0.00 0.00 0.00 95 1020.9
20191022031558 43 101 0.0 0.0 0.00 0.00 0.00 94 1020.7
20191022030039 44 101 0.0 0.0 0.00 0.00 0.00 93 1020.7
20191022024550 45 101 0.0 0.0 0.00 0.00 0.00 94 1021.2
20191022023057 44 101 0.0 0.0 0.00 0.00 0.00 94 1021.1
20191022021516 44 101 0.0 0.0 0.00 0.00 0.00 93 1021.1